Flag for U.S.A. Weather past 2 weeks in Palestine, Texas, U.S.A.

Now
65 °F

Overcast.


Feels Like: 65 °F
Forecast: 62 / 74 °F
Wind: 5 mph from Southeast

Location: Palestine Municipal Airport

Current Time: Mar 30, 2015 at 8:21:43 AM

Latest Report: Mar 30, 2015 at 7:55 AM


Visibility: 10 mi

Pressure: 30.18 "Hg

Humidity: 91%

Dew point: 63 °F

Location of PalestineLocation

Historic Weather in Palestine — Graph

°F

Palestine temperature yesterday

Maximum temperature yesterday: 85 °F (at 3:55 PM)
Minimum temperature yesterday: 55 °F (at 6:55 AM)
Average temperature yesterday: 70 °F

Past Weeks' High & Low Weather Summary

 TemperatureHumidityPressure
High85 °F (Mar 29, 3:55 PM)100% (Mar 15, 7:15 AM)30.30 "Hg (Mar 15, 7:15 AM)
Low36 °F (Mar 27, 7:15 AM)24% (Mar 28, 5:15 PM)29.84 "Hg (Mar 26, 1:55 AM)
Average64 °F76%30.08 "Hg
* Reported Mar 15 7:15 AM — Mar 30 7:15 AM, Palestine, Weather by CustomWeather, © 2015

Note: Actual official high and low records may vary slightly from our data, if they occured in-between our weather recording intervals... More about our weather records

Advertising

Palestine weather history for previous 24 hours

 ConditionsComfort  
Time TempWeatherWind HumidityBarometerVisibility
7:15 AM
Mon, Mar 30
65 °FOvercast.3 mph90%30.17 "Hg10 mi
6:55 AM65 °FOvercast.5 mph89%30.16 "Hg10 mi
6:35 AM65 °FOvercast.5 mph89%30.16 "Hg10 mi
6:15 AM65 °FOvercast.5 mph88%30.15 "Hg10 mi
5:55 AM65 °FOvercast.7 mph88%30.15 "Hg10 mi
5:15 AM65 °FOvercast.6 mph88%30.14 "Hg10 mi
4:55 AM65 °FOvercast.7 mph88%30.13 "Hg10 mi
4:15 AM65 °FOvercast.5 mph87%30.13 "Hg10 mi
3:55 AM65 °FPassing clouds.5 mph88%30.14 "Hg10 mi
3:35 AM64 °FPassing clouds.3 mph88%30.13 "Hg10 mi
3:15 AM65 °FClear.6 mph87%30.13 "Hg10 mi
2:55 AM65 °FClear.7 mph85%30.14 "Hg10 mi
2:15 AM66 °FPassing clouds.8 mph83%30.15 "Hg10 mi
1:55 AM67 °FOvercast.8 mph83%30.15 "Hg10 mi
1:35 AM67 °FPartly cloudy.9 mph82%30.15 "Hg10 mi
1:15 AM67 °FPassing clouds.8 mph81%30.15 "Hg10 mi
12:55 AM67 °FPassing clouds.7 mph80%30.15 "Hg10 mi
12:35 AM67 °FPartly cloudy.7 mph79%30.15 "Hg10 mi
12:15 AM68 °FPassing clouds.10 mph78%30.14 "Hg10 mi
11:55 PM
Sun, Mar 29
68 °FPassing clouds.7 mph77%30.14 "Hg10 mi
11:35 PM68 °FClear.12 mph74%30.13 "Hg10 mi
11:15 PM69 °FClear.9 mph72%30.12 "Hg10 mi
10:55 PM69 °FClear.7 mph69%30.11 "Hg10 mi
10:15 PM70 °FClear.6 mph61%30.10 "Hg10 mi
9:55 PM71 °FClear.7 mph58%30.10 "Hg10 mi
9:35 PM72 °FClear.7 mph55%30.10 "Hg10 mi
9:15 PM73 °FClear.8 mph52%30.09 "Hg10 mi
8:55 PM74 °FClear.9 mph49%30.08 "Hg10 mi
8:15 PM75 °FSunny.9 mph46%30.03 "Hg10 mi
7:55 PM76 °FSunny.9 mph44%30.02 "Hg10 mi
7:35 PM78 °FSunny.10 mph43%30.01 "Hg10 mi
7:15 PM80 °FSunny.13 mph39%30.01 "Hg10 mi
6:55 PM81 °FSunny.14 mph38%30.01 "Hg10 mi
6:35 PM82 °FSunny.15 mph35%30.01 "Hg10 mi
6:15 PM83 °FSunny.16 mph35%30.01 "Hg10 mi
5:55 PM83 °FSunny.17 mph34%30.02 "Hg10 mi
5:35 PM84 °FSunny.16 mph34%30.02 "Hg10 mi
5:15 PM85 °FSunny.14 mph34%30.02 "Hg10 mi
4:55 PM84 °FSunny.16 mph35%30.02 "Hg10 mi
4:15 PM85 °FSunny.17 mph32%30.02 "Hg10 mi
3:55 PM85 °FSunny.14 mph33%30.04 "Hg10 mi
3:35 PM84 °FSunny.15 mph38%30.05 "Hg10 mi
3:15 PM83 °FSunny.18 mph37%30.06 "Hg10 mi
2:55 PM82 °FSunny.15 mph36%30.06 "Hg10 mi
2:35 PM82 °FSunny.20 mph38%30.07 "Hg10 mi
2:15 PM81 °FSunny.16 mph40%30.07 "Hg10 mi
1:55 PM80 °FSunny.13 mph40%30.07 "Hg10 mi
1:35 PM80 °FSunny.15 mph43%30.08 "Hg10 mi
1:15 PM79 °FSunny.20 mph44%30.09 "Hg10 mi
12:55 PM78 °FSunny.17 mph47%30.10 "Hg10 mi
12:35 PM76 °FSunny.21 mph48%30.11 "Hg10 mi
12:15 PM75 °FSunny.17 mph50%30.13 "Hg10 mi
11:55 AM75 °FSunny.18 mph54%30.13 "Hg10 mi
11:15 AM71 °FSunny.13 mph62%30.14 "Hg10 mi
10:55 AM70 °FSunny.15 mph64%30.14 "Hg10 mi
10:35 AM69 °FSunny.12 mph69%30.15 "Hg10 mi
10:15 AM67 °FScattered clouds.10 mph73%30.15 "Hg10 mi
9:55 AM66 °FPartly sunny.13 mph78%30.14 "Hg10 mi
9:15 AM64 °FPartly sunny.13 mph83%30.14 "Hg10 mi
8:55 AM63 °FScattered clouds.9 mph84%30.13 "Hg10 mi
8:35 AM61 °FSunny.8 mph87%30.12 "Hg10 mi
8:15 AM59 °FSunny.6 mph90%30.12 "Hg10 mi
Weather by CustomWeather, © 2015

See weather overviewHow to use our weather pages